Flag for U.S.A. Weather past 2 weeks in Prescott, Arizona, U.S.A.

Now
80 °F

Partly sunny.


Feels Like: 80 °F
Forecast: 61 / 84 °F
Wind: 13 mph from Southeast

Location: Love Field

Current Time: Jul 7, 2015 at 3:54:45 PM

Latest Report: Jul 7, 2015 at 1:53 PM


Visibility: 10 mi

Pressure: 29.87 "Hg (24.79 "Hg at 1635m altitude)

Humidity: 44%

Dew point: 56 °F

Location of PrescottLocation

Historic Weather in Prescott — Graph

°F

Prescott temperature yesterday

Maximum temperature yesterday: 83 °F (at 11:53 AM)
Minimum temperature yesterday: 63 °F (at 2:53 AM)
Average temperature yesterday: 73 °F

Past Weeks' High & Low Weather Summary

 TemperatureHumidityPressure
High98 °F (Jun 25, 4:53 PM)96% (Jul 5, 10:53 PM)30.26 "Hg (Jul 5, 10:53 PM)
Low60 °F (Jul 7, 4:53 AM)8% (Jun 22, 3:53 PM)29.71 "Hg (Jul 3, 4:53 PM)
Average79 °F41%29.87 "Hg
* Reported Jun 22 1:53 PM — Jul 7 1:53 PM, Prescott, Weather by CustomWeather, © 2015

Note: Actual official high and low records may vary slightly from our data, if they occured in-between our weather recording intervals... More about our weather records

Advertising

Prescott weather history for previous 24 hours

 ConditionsComfort  
Time TempWeatherWind HumidityBarometerVisibility
1:53 PM
Tue, Jul 7
80 °FPartly sunny.13 mph44%29.87 "Hg10 mi
12:53 PM79 °FBroken clouds.9 mph42%29.88 "Hg10 mi
11:53 AM82 °FPartly sunny.14 mph41%29.90 "Hg10 mi
10:53 AM76 °FLight rain. Broken clouds.3 mph50%29.94 "Hg10 mi
9:53 AM76 °FScattered clouds.8 mph52%29.93 "Hg10 mi
8:53 AM77 °FPassing clouds.7 mph50%29.94 "Hg10 mi
7:53 AM72 °FScattered clouds.No wind55%29.94 "Hg10 mi
6:53 AM67 °FSunny.No wind66%29.94 "Hg10 mi
5:53 AM63 °FSunny.8 mph68%29.92 "Hg10 mi
4:53 AM60 °FClear.8 mph80%29.91 "Hg10 mi
3:53 AM63 °FClear.3 mph70%29.91 "Hg10 mi
2:53 AM62 °FClear.5 mph75%29.91 "Hg10 mi
1:53 AM63 °FClear.No wind73%29.91 "Hg10 mi
12:53 AM64 °FClear.5 mph70%29.91 "Hg10 mi
11:53 PM
Mon, Jul 6
66 °FClear.5 mph68%29.91 "Hg10 mi
10:53 PM67 °FClear.3 mph68%29.92 "Hg10 mi
9:53 PM70 °FClear.No wind57%29.93 "Hg10 mi
8:53 PM71 °FClear.5 mph55%29.93 "Hg10 mi
7:53 PM74 °FClear.8 mph48%29.92 "Hg10 mi
6:53 PM78 °FPassing clouds.14 mph45%29.90 "Hg10 mi
5:53 PM81 °FPassing clouds.9 mph33%29.88 "Hg10 mi
4:53 PM82 °FScattered clouds.15 mph34%29.90 "Hg10 mi
3:53 PM81 °FScattered clouds.21 mph33%29.91 "Hg10 mi
Weather by CustomWeather, © 2015

See weather overviewHow to use our weather pages